This is the latest recevied weather packets stored in our database for station/object VE1UHF-4. If no packets are shown the sender has not sent any weather packets the latest 1 day(s).
| Time | Temp. | Humidity | Pressure | Rain* | Wind** | Luminosity | Snow |
|---|---|---|---|---|---|---|---|
| 1778024044 | 22.22° C | 69% | 1002.3 hPa | 0 mm | 0 m/s | - | - |
| 1778023144 | 22.22° C | 68% | 1002.1 hPa | 0 mm | 0 m/s | - | - |
| 1778022243 | 22.78° C | 68% | 1001.8 hPa | 0 mm | 0 m/s | - | - |
| 1778020442 | 23.33° C | 68% | 1001.5 hPa | 0 mm | 0 m/s | - | - |
| 1778019542 | 23.33° C | 68% | 1001.6 hPa | 0 mm | 0 m/s | - | - |
| 1778018641 | 23.89° C | 68% | 1001.6 hPa | 0 mm | 0 m/s | - | - |
| 1778017741 | 23.89° C | 69% | 1001.7 hPa | 0 mm | 0 m/s | - | - |
| 1778016840 | 24.44° C | 70% | 1001.6 hPa | 0 mm | 0 m/s | - | - |
| 1778015940 | 24.44° C | 71% | 1001.9 hPa | 0 mm | 0 m/s | - | - |
| 1778015039 | 25° C | 73% | 1001.8 hPa | 0 mm | 0 m/s | - | - |
| 1778013238 | 25.56° C | 76% | 1002.1 hPa | 0 mm | 0 m/s | - | - |
| 1778012337 | 25.56° C | 77% | 1002.1 hPa | 0 mm | 0 m/s | - | - |
| 1778011437 | 25.56° C | 77% | 1002.2 hPa | 0 mm | 0 m/s | - | - |
| 1778009636 | 25.56° C | 79% | 1002.4 hPa | 0 mm | 0 m/s | - | - |
| 1778008735 | 25.56° C | 80% | 1002.4 hPa | 0 mm | 0 m/s | - | - |
| 1778007835 | 25.56° C | 82% | 1002.5 hPa | 0 mm | 0 m/s | - | - |
| 1778006934 | 25.56° C | 84% | 1002.8 hPa | 0 mm | 0 m/s | - | - |
| 1778006034 | 25.56° C | 84% | 1002.8 hPa | 0 mm | 0 m/s | - | - |
| 1778005133 | 25.56° C | 84% | 1003 hPa | 0 mm | 0 m/s | - | - |
| 1778004233 | 25° C | 86% | 1003.1 hPa | 0 mm | 0 m/s | - | - |
| 1778003332 | 24.44° C | 86% | 1003.1 hPa | 0 mm | 0 m/s | - | - |
| 1778001533 | 23.33° C | 87% | 1003.6 hPa | 0 mm | 0 m/s | - | - |
| 1778000631 | 23.33° C | 87% | 1003.2 hPa | 0 mm | 0 m/s | - | - |
| 1777999730 | 22.78° C | 87% | 1003.6 hPa | 0 mm | 0 m/s | - | - |
| 1777997929 | 21.67° C | 88% | 1003.5 hPa | 0 mm | 0 m/s | - | - |
* Rain since midnight (hover to see other rain measurements)
** Current wind speed in m/s (hover to see current wind gust speed)